When you browse on this site, cookies collect data to enhance your experience and personalize the content and advertising you see.
Visit our Privacy Policy to learn more. By continuing to use the site, you agree to this use of cookies and data.
  • In France
  • List of Countries
  • For 7 days
  • Water Temperature
  • Satellite Maps
  • Weather Map
  • Weather Widgets
  • user-avatar
    Login

    Hourly Weather Sliven

    Today, 22 March, Friday

    Time Temperature Precipitation Wind Pressure Humidity
    00:00 +6°C° 0 mm 1 mps 742 mmHg 79%
    01:00 +6°C° 0 mm 1 mps 742 mmHg 80%
    02:00 +6°C° 0 mm 1 mps 742 mmHg 78%
    03:00 +5°C° 0 mm 1 mps 742 mmHg 79%
    04:00 +5°C° 0 mm 1 mps 742 mmHg 80%
    05:00 +5°C° 0 mm 1 mps 742 mmHg 81%
    06:00 +6°C° 0 mm 1 mps 742 mmHg 77%
    07:00 +7°C° 0 mm 1 mps 742 mmHg 74%
    08:00 +8°C° 0 mm 1 mps 742 mmHg 70%
    09:00 +9°C° 0 mm 2 mps 742 mmHg 63%
    10:00 +10°C° 0 mm 2 mps 742 mmHg 55%
    11:00 +13°C° 0 mm 2 mps 742 mmHg 48%
    12:00 +14°C° 0 mm 2 mps 742 mmHg 46%
    13:00 +14°C° 0 mm 2 mps 741 mmHg 45%
    14:00 +15°C° 0 mm 2 mps 741 mmHg 43%
    15:00 +14°C° 0 mm 3 mps 740 mmHg 44%
    16:00 +14°C° 0 mm 3 mps 740 mmHg 46%
    17:00 +14°C° 0 mm 3 mps 740 mmHg 47%
    18:00 +13°C° 0 mm 2 mps 739 mmHg 53%
    19:00 +10°C° 0 mm 2 mps 739 mmHg 59%
    20:00 +9°C° 0 mm 2 mps 739 mmHg 65%
    21:00 +8°C° 0 mm 2 mps 739 mmHg 66%
    22:00 +9°C° 0 mm 1 mps 739 mmHg 67%
    23:00 +8°C° 0 mm 1 mps 739 mmHg 68%

    Tomorrow, 23 March, Saturday

    Time Temperature Precipitation Wind Pressure Humidity
    00:00 +8°C° 0 mm 1 mps 739 mmHg 68%
    01:00 +8°C° 0 mm 1 mps 739 mmHg 69%
    02:00 +7°C° 0 mm 2 mps 739 mmHg 69%
    03:00 +7°C° 0 mm 2 mps 739 mmHg 70%
    04:00 +6°C° 0 mm 2 mps 738 mmHg 71%
    05:00 +6°C° 0 mm 2 mps 738 mmHg 72%
    06:00 +7°C° 0 mm 2 mps 738 mmHg 71%
    07:00 +9°C° 0 mm 1 mps 738 mmHg 71%
    08:00 +10°C° 0 mm 1 mps 739 mmHg 70%
    09:00 +11°C° 0 mm 1 mps 739 mmHg 65%
    10:00 +13°C° 0 mm 2 mps 738 mmHg 60%
    11:00 +14°C° 0 mm 2 mps 738 mmHg 55%
    12:00 +14°C° 0 mm 2 mps 738 mmHg 56%
    13:00 +14°C° 0 mm 2 mps 738 mmHg 57%
    14:00 +12°C° 0 mm 3 mps 738 mmHg 58%
    15:00 +12°C° 0 mm 3 mps 737 mmHg 59%
    16:00 +11°C° 0 mm 3 mps 737 mmHg 61%
    17:00 +11°C° 0 mm 4 mps 737 mmHg 62%
    18:00 +9°C° 0 mm 3 mps 737 mmHg 65%
    19:00 +8°C° 0 mm 2 mps 737 mmHg 69%
    20:00 +6°C° 0 mm 2 mps 738 mmHg 73%
    21:00 +7°C° 0 mm 1 mps 738 mmHg 68%
    22:00 +7°C° 0 mm 1 mps 738 mmHg 63%
    23:00 +7°C° 0 mm 1 mps 738 mmHg 59%

    Day after tomorrow, 24 March, Sunday

    Time Temperature Precipitation Wind Pressure Humidity
    00:00 +7°C° 0 mm 1 mps 738 mmHg 55%
    01:00 +7°C° 0 mm 1 mps 738 mmHg 51%
    02:00 +7°C° 0 mm 1 mps 738 mmHg 48%
    03:00 +6°C° 0 mm 1 mps 738 mmHg 47%
    04:00 +5°C° 0 mm 1 mps 737 mmHg 46%
    05:00 +5°C° 0 mm 1 mps 737 mmHg 45%
    06:00 +6°C° 0 mm 1 mps 737 mmHg 44%
    07:00 +6°C° 0 mm 1 mps 738 mmHg 43%
    08:00 +7°C° 0 mm 1 mps 738 mmHg 41%
    09:00 +8°C° 0 mm 2 mps 738 mmHg 38%
    10:00 +10°C° 0 mm 2 mps 738 mmHg 35%
    11:00 +11°C° 0 mm 3 mps 738 mmHg 32%
    12:00 +12°C° 0 mm 3 mps 738 mmHg 31%
    13:00 +13°C° 0 mm 3 mps 737 mmHg 30%
    14:00 +13°C° 0 mm 4 mps 737 mmHg 29%
    15:00 +13°C° 0 mm 3 mps 736 mmHg 31%
    16:00 +13°C° 0 mm 3 mps 736 mmHg 33%
    17:00 +13°C° 0 mm 3 mps 736 mmHg 36%
    18:00 +11°C° 0 mm 3 mps 736 mmHg 41%
    19:00 +9°C° 0 mm 2 mps 736 mmHg 47%
    20:00 +8°C° 0 mm 1 mps 736 mmHg 53%
    21:00 +8°C° 0 mm 1 mps 735 mmHg 55%
    22:00 +7°C° 0 mm 1 mps 735 mmHg 58%
    23:00 +5°C° 0 mm 0 mps 735 mmHg 60%

    25 March, Monday

    Time Temperature Precipitation Wind Pressure Humidity
    00:00 +5°C° 0 mm 0 mps 735 mmHg 61%
    01:00 +5°C° 0 mm 0 mps 735 mmHg 62%
    02:00 +5°C° 0 mm 1 mps 734 mmHg 62%
    03:00 +5°C° 0 mm 1 mps 734 mmHg 62%
    04:00 +5°C° 0 mm 1 mps 734 mmHg 63%
    05:00 +5°C° 0 mm 1 mps 733 mmHg 63%
    06:00 +6°C° 0 mm 1 mps 733 mmHg 60%
    07:00 +7°C° 0 mm 1 mps 733 mmHg 57%
    08:00 +8°C° 0 mm 1 mps 733 mmHg 54%
    09:00 +11°C° 0 mm 1 mps 733 mmHg 49%
    10:00 +13°C° 0 mm 2 mps 733 mmHg 44%
    11:00 +15°C° 0 mm 2 mps 733 mmHg 39%
    12:00 +16°C° 0 mm 3 mps 732 mmHg 38%
    13:00 +17°C° 0 mm 3 mps 732 mmHg 37%
    14:00 +18°C° 0 mm 3 mps 731 mmHg 36%
    15:00 +18°C° 0 mm 3 mps 731 mmHg 40%
    16:00 +18°C° 0 mm 3 mps 730 mmHg 43%
    17:00 +18°C° 0 mm 3 mps 730 mmHg 47%
    18:00 +16°C° 0.1 mm 2 mps 730 mmHg 53%
    19:00 +14°C° 0.1 mm 2 mps 730 mmHg 58%
    20:00 +12°C° 0.1 mm 1 mps 730 mmHg 64%
    21:00 +12°C° 0 mm 1 mps 730 mmHg 65%
    22:00 +11°C° 0 mm 1 mps 730 mmHg 66%
    23:00 +10°C° 0 mm 1 mps 730 mmHg 66%

    26 March, Tuesday

    Time Temperature Precipitation Wind Pressure Humidity
    00:00 +9°C° 0 mm 2 mps 730 mmHg 68%
    01:00 +8°C° 0 mm 2 mps 729 mmHg 69%
    02:00 +8°C° 0 mm 2 mps 729 mmHg 71%
    03:00 +7°C° 0 mm 2 mps 729 mmHg 70%
    04:00 +7°C° 0 mm 2 mps 729 mmHg 70%
    05:00 +7°C° 0 mm 2 mps 729 mmHg 70%
    06:00 +7°C° 0 mm 3 mps 729 mmHg 66%
    07:00 +7°C° 0 mm 4 mps 730 mmHg 62%
    08:00 +8°C° 0 mm 5 mps 730 mmHg 58%
    09:00 +8°C° 0.2 mm 5 mps 730 mmHg 59%
    10:00 +7°C° 0.2 mm 5 mps 730 mmHg 61%
    11:00 +7°C° 0.2 mm 6 mps 731 mmHg 62%
    12:00 +8°C° 0.4 mm 6 mps 731 mmHg 61%
    13:00 +8°C° 0.4 mm 5 mps 731 mmHg 60%
    14:00 +9°C° 0.4 mm 5 mps 731 mmHg 59%
    15:00 +8°C° 0.2 mm 5 mps 731 mmHg 65%
    16:00 +7°C° 0.2 mm 5 mps 731 mmHg 71%
    17:00 +6°C° 0.2 mm 5 mps 731 mmHg 76%
    18:00 +5°C° 0 mm 4 mps 732 mmHg 79%
    19:00 +5°C° 0 mm 4 mps 732 mmHg 81%
    20:00 +4°C° 0 mm 3 mps 733 mmHg 83%
    21:00 +4°C° 0 mm 3 mps 733 mmHg 83%
    22:00 +4°C° 0 mm 3 mps 733 mmHg 84%
    23:00 +3°C° 0 mm 3 mps 733 mmHg 84%

    27 March, Wednesday

    Time Temperature Precipitation Wind Pressure Humidity
    00:00 +3°C° 0 mm 3 mps 734 mmHg 84%
    01:00 +3°C° 0 mm 4 mps 734 mmHg 84%
    02:00 +4°C° 0 mm 4 mps 734 mmHg 84%
    03:00 +4°C° 0.1 mm 4 mps 734 mmHg 85%
    04:00 +4°C° 0.1 mm 4 mps 734 mmHg 85%
    05:00 +4°C° 0.1 mm 4 mps 735 mmHg 86%
    06:00 +4°C° 0.2 mm 4 mps 735 mmHg 85%
    07:00 +3°C° 0.2 mm 5 mps 735 mmHg 85%
    08:00 +3°C° 0.2 mm 5 mps 736 mmHg 84%
    09:00 +5°C° 0.4 mm 5 mps 736 mmHg 82%
    10:00 +4°C° 0.4 mm 6 mps 737 mmHg 81%
    11:00 +5°C° 0.4 mm 6 mps 737 mmHg 79%
    12:00 +5°C° 0.2 mm 6 mps 737 mmHg 77%
    13:00 +5°C° 0.2 mm 6 mps 737 mmHg 76%
    14:00 +7°C° 0.2 mm 6 mps 737 mmHg 75%
    15:00 +5°C° 0.1 mm 6 mps 737 mmHg 76%
    16:00 +5°C° 0.1 mm 6 mps 737 mmHg 77%
    17:00 +5°C° 0.1 mm 6 mps 738 mmHg 78%
    18:00 +5°C° 0.1 mm 5 mps 738 mmHg 80%
    19:00 +5°C° 0.1 mm 5 mps 738 mmHg 83%
    20:00 +4°C° 0.1 mm 4 mps 739 mmHg 85%
    21:00 +4°C° 0.1 mm 4 mps 739 mmHg 85%
    22:00 +4°C° 0.1 mm 4 mps 739 mmHg 85%
    23:00 +3°C° 0.1 mm 3 mps 739 mmHg 85%
    Show more